TimeEET,TemperatureF,Dew PointF,Humidity,Sea Level PressureIn,VisibilityMPH,Wind Direction,Wind SpeedMPH,Gust SpeedMPH,PrecipitationIn,Events,Conditions,WindDirDegrees,DateUTC
12:00 AM,64.4,24.8,22,29.98,-9999.0,NNW,6.9,-,N/A,,Clear,340,2013-12-28 22:00:00
1:00 AM,62.6,26.6,26,29.98,-9999.0,NW,6.9,-,N/A,,Clear,320,2013-12-28 23:00:00
2:00 AM,60,27,17,29.98,6,NW,5.8,,,,,320,2013-12-29 00:00:00
2:00 AM,60.8,26.6,27,29.98,-9999.0,NW,5.8,-,N/A,,Clear,320,2013-12-29 00:00:00
3:00 AM,57.2,26.6,31,29.98,-9999.0,NW,6.9,-,N/A,,Clear,320,2013-12-29 01:00:00
4:00 AM,57.2,26.6,31,29.98,-9999.0,NNW,5.8,-,N/A,,Clear,330,2013-12-29 02:00:00
5:00 AM,55.4,28.4,36,29.98,-9999.0,NNW,8.1,-,N/A,,Clear,340,2013-12-29 03:00:00
6:00 AM,53.6,28.4,38,30.01,-9999.0,NNW,8.1,-,N/A,,Clear,340,2013-12-29 04:00:00
7:00 AM,53.6,28.4,38,30.04,-9999.0,North,6.9,-,N/A,,Clear,350,2013-12-29 05:00:00
8:00 AM,56,30,25,30.07,6,North,5.8,,,,,0,2013-12-29 06:00:00
8:00 AM,55.4,30.2,38,30.06,-9999.0,North,5.8,-,N/A,,Clear,360,2013-12-29 06:00:00
9:00 AM,62.6,26.6,26,30.06,-9999.0,NNW,9.2,-,N/A,,Clear,340,2013-12-29 07:00:00
10:00 AM,64.4,26.6,24,30.06,-9999.0,North,11.5,-,N/A,,Clear,350,2013-12-29 08:00:00
11:00 AM,66.2,26.6,23,30.06,-9999.0,North,10.4,-,N/A,,Clear,350,2013-12-29 09:00:00
12:00 PM,69.8,24.8,18,30.04,-9999.0,NW,10.4,-,N/A,,Clear,320,2013-12-29 10:00:00
1:00 PM,71.6,19.4,14,30.01,-9999.0,NW,12.7,-,N/A,,Clear,320,2013-12-29 11:00:00
2:00 PM,71,18,6,29.99,6,NW,11.5,,,,,320,2013-12-29 12:00:00
2:00 PM,71.6,17.6,13,30.01,-9999.0,NW,11.5,-,N/A,,Clear,320,2013-12-29 12:00:00
3:00 PM,71.6,15.8,12,30.01,-9999.0,NW,16.1,-,N/A,,Clear,310,2013-12-29 13:00:00
4:00 PM,69.8,15.8,13,30.01,-9999.0,North,9.2,-,N/A,,Clear,350,2013-12-29 14:00:00
5:00 PM,68.0,19.4,16,30.01,-9999.0,North,9.2,-,N/A,,Clear,350,2013-12-29 15:00:00
6:00 PM,64.4,19.4,18,30.01,-9999.0,North,6.9,-,N/A,,Clear,350,2013-12-29 16:00:00
7:00 PM,62.6,21.2,20,30.04,-9999.0,NNW,5.8,-,N/A,,Clear,340,2013-12-29 17:00:00
8:00 PM,60.8,24.8,25,30.06,-9999.0,NNW,6.9,-,N/A,,Clear,340,2013-12-29 18:00:00
9:00 PM,57.2,26.6,31,30.09,-9999.0,North,4.6,-,N/A,,Clear,360,2013-12-29 19:00:00
10:00 PM,59.0,28.4,31,30.09,-9999.0,NNW,6.9,-,N/A,,Clear,340,2013-12-29 20:00:00
11:00 PM,55.4,28.4,36,30.06,-9999.0,NW,2.3,-,N/A,,Clear,320,2013-12-29 21:00:00